Time,TemperatureF,DewpointF,PressureIn,WindDirection,WindDirectionDegrees,WindSpeedMPH,WindSpeedGustMPH,Humidity,HourlyPrecipIn,Conditions,Clouds,dailyrainin,SoftwareType,DateUTC
2013-05-03 00:04:00,48.3,41.1,30.57,SE,143,0.0,0.0,76,0.00,,,0.00,WUHU216DAVISWMX,2013-05-03 04:04:00,
2013-05-03 00:09:00,48.1,41.0,30.57,SE,143,0.0,0.0,76,0.00,,,0.00,WUHU216DAVISWMX,2013-05-03 04:09:00,
2013-05-03 00:14:00,47.8,41.0,30.57,SE,143,0.0,0.0,77,0.00,,,0.00,WUHU216DAVISWMX,2013-05-03 04:14:00,
2013-05-03 00:19:00,47.6,40.8,30.57,SE,143,0.0,0.0,77,0.00,,,0.00,WUHU216DAVISWMX,2013-05-03 04:19:00,
2013-05-03 00:24:00,47.3,40.8,30.57,SE,143,0.0,0.0,78,0.00,,,0.00,WUHU216DAVISWMX,2013-05-03 04:24:00,
2013-05-03 00:29:00,47.2,40.7,30.57,SE,143,0.0,0.0,78,0.00,,,0.00,WUHU216DAVISWMX,2013-05-03 04:29:00,
2013-05-03 00:34:00,47.0,40.9,30.57,SE,143,0.0,0.0,79,0.00,,,0.00,WUHU216DAVISWMX,2013-05-03 04:34:00,
2013-05-03 00:39:00,46.8,40.7,30.56,SE,143,0.0,0.0,79,0.00,,,0.00,WUHU216DAVISWMX,2013-05-03 04:39:00,
2013-05-03 00:44:00,46.6,40.2,30.57,SE,143,0.0,0.0,78,0.00,,,0.00,WUHU216DAVISWMX,2013-05-03 04:44:00,
2013-05-03 00:49:00,46.4,40.6,30.57,SE,143,0.0,0.0,80,0.00,,,0.00,WUHU216DAVISWMX,2013-05-03 04:49:00,
2013-05-03 00:54:00,46.2,40.7,30.57,SE,143,0.0,0.0,81,0.00,,,0.00,WUHU216DAVISWMX,2013-05-03 04:54:00,
2013-05-03 00:59:00,46.0,40.5,30.57,SE,143,0.0,0.0,81,0.00,,,0.00,WUHU216DAVISWMX,2013-05-03 04:59:00,
2013-05-03 01:04:00,45.9,40.4,30.57,SE,143,0.0,0.0,81,0.00,,,0.00,WUHU216DAVISWMX,2013-05-03 05:04:00,
2013-05-03 01:09:00,45.7,40.2,30.57,SE,143,0.0,0.0,81,0.00,,,0.00,WUHU216DAVISWMX,2013-05-03 05:09:00,
2013-05-03 01:14:00,45.6,40.1,30.57,SE,143,0.0,0.0,81,0.00,,,0.00,WUHU216DAVISWMX,2013-05-03 05:14:00,
2013-05-03 01:19:00,45.4,39.6,30.56,SE,143,0.0,0.0,80,0.00,,,0.00,WUHU216DAVISWMX,2013-05-03 05:19:00,
2013-05-03 01:24:00,45.2,40.0,30.56,SE,143,0.0,0.0,82,0.00,,,0.00,WUHU216DAVISWMX,2013-05-03 05:24:00,
2013-05-03 01:29:00,45.0,39.8,30.56,SE,143,0.0,0.0,82,0.00,,,0.00,WUHU216DAVISWMX,2013-05-03 05:29:00,
2013-05-03 01:34:00,44.8,39.3,30.56,SE,143,0.0,0.0,81,0.00,,,0.00,WUHU216DAVISWMX,2013-05-03 05:34:00,
2013-05-03 01:39:00,44.7,39.9,30.56,SE,143,0.0,0.0,83,0.00,,,0.00,WUHU216DAVISWMX,2013-05-03 05:39:00,
2013-05-03 01:44:00,44.6,39.5,30.56,SE,143,0.0,0.0,82,0.00,,,0.00,WUHU216DAVISWMX,2013-05-03 05:44:00,
2013-05-03 01:49:00,44.4,39.3,30.56,SE,143,0.0,0.0,82,0.00,,,0.00,WUHU216DAVISWMX,2013-05-03 05:49:00,
2013-05-03 01:54:00,44.2,39.4,30.56,SE,143,0.0,0.0,83,0.00,,,0.00,WUHU216DAVISWMX,2013-05-03 05:54:00,
2013-05-03 01:59:00,44.1,39.3,30.56,SE,143,0.0,0.0,83,0.00,,,0.00,WUHU216DAVISWMX,2013-05-03 05:59:00,
2013-05-03 02:04:00,44.0,39.5,30.56,SE,143,0.0,0.0,84,0.00,,,0.00,WUHU216DAVISWMX,2013-05-03 06:04:00,
2013-05-03 02:09:00,43.9,39.1,30.56,SE,143,0.0,0.0,83,0.00,,,0.00,WUHU216DAVISWMX,2013-05-03 06:09:00,
2013-05-03 02:14:00,43.8,39.0,30.56,SE,143,0.0,0.0,83,0.00,,,0.00,WUHU216DAVISWMX,2013-05-03 06:14:00,
2013-05-03 02:19:00,43.6,39.4,30.56,SE,143,0.0,0.0,85,0.00,,,0.00,WUHU216DAVISWMX,2013-05-03 06:19:00,
2013-05-03 02:24:00,43.5,39.0,30.55,SE,143,0.0,0.0,84,0.00,,,0.00,WUHU216DAVISWMX,2013-05-03 06:24:00,
2013-05-03 02:29:00,43.3,38.8,30.56,SE,143,0.0,0.0,84,0.00,,,0.00,WUHU216DAVISWMX,2013-05-03 06:29:00,
2013-05-03 02:34:00,43.1,38.9,30.56,SE,143,0.0,0.0,85,0.00,,,0.00,WUHU216DAVISWMX,2013-05-03 06:34:00,
2013-05-03 02:39:00,42.9,38.7,30.55,SE,143,0.0,0.0,85,0.00,,,0.00,WUHU216DAVISWMX,2013-05-03 06:39:00,
2013-05-03 02:44:00,42.9,38.7,30.55,SE,143,0.0,0.0,85,0.00,,,0.00,WUHU216DAVISWMX,2013-05-03 06:44:00,
2013-05-03 02:49:00,42.7,38.5,30.55,SE,143,0.0,0.0,85,0.00,,,0.00,WUHU216DAVISWMX,2013-05-03 06:49:00,
2013-05-03 02:54:00,42.6,38.7,30.55,SE,143,0.0,0.0,86,0.00,,,0.00,WUHU216DAVISWMX,2013-05-03 06:54:00,
2013-05-03 02:59:00,42.5,38.6,30.56,SE,143,0.0,0.0,86,0.00,,,0.00,WUHU216DAVISWMX,2013-05-03 06:59:00,
2013-05-03 03:04:00,42.4,38.5,30.56,SE,143,0.0,0.0,86,0.00,,,0.00,WUHU216DAVISWMX,2013-05-03 07:04:00,
2013-05-03 03:09:00,42.2,38.3,30.55,SE,143,0.0,0.0,86,0.00,,,0.00,WUHU216DAVISWMX,2013-05-03 07:09:00,
2013-05-03 03:14:00,42.1,38.2,30.55,SE,143,0.0,0.0,86,0.00,,,0.00,WUHU216DAVISWMX,2013-05-03 07:14:00,
2013-05-03 03:19:00,41.9,38.0,30.55,SE,143,0.0,0.0,86,0.00,,,0.00,WUHU216DAVISWMX,2013-05-03 07:19:00,
2013-05-03 03:24:00,41.9,38.3,30.55,SE,143,0.0,0.0,87,0.00,,,0.00,WUHU216DAVISWMX,2013-05-03 07:24:00,
2013-05-03 03:29:00,41.7,38.1,30.55,SE,143,0.0,0.0,87,0.00,,,0.00,WUHU216DAVISWMX,2013-05-03 07:29:00,
2013-05-03 03:34:00,41.7,38.4,30.56,SE,143,0.0,0.0,88,0.00,,,0.00,WUHU216DAVISWMX,2013-05-03 07:34:00,
2013-05-03 03:39:00,41.7,38.1,30.56,SE,143,0.0,0.0,87,0.00,,,0.00,WUHU216DAVISWMX,2013-05-03 07:39:00,
2013-05-03 03:44:00,41.6,38.0,30.56,SE,143,0.0,0.0,87,0.00,,,0.00,WUHU216DAVISWMX,2013-05-03 07:44:00,
2013-05-03 03:49:00,41.5,37.9,30.56,SE,143,0.0,0.0,87,0.00,,,0.00,WUHU216DAVISWMX,2013-05-03 07:49:00,
2013-05-03 03:54:00,41.4,37.8,30.56,SE,143,0.0,0.0,87,0.00,,,0.00,WUHU216DAVISWMX,2013-05-03 07:54:00,
2013-05-03 03:59:00,41.2,37.9,30.56,SE,143,0.0,0.0,88,0.00,,,0.00,WUHU216DAVISWMX,2013-05-03 07:59:00,
2013-05-03 04:04:00,41.3,38.0,30.56,SE,143,0.0,0.0,88,0.00,,,0.00,WUHU216DAVISWMX,2013-05-03 08:04:00,
2013-05-03 04:09:00,41.2,37.9,30.56,SE,143,0.0,0.0,88,0.00,,,0.00,WUHU216DAVISWMX,2013-05-03 08:09:00,
2013-05-03 04:14:00,41.1,37.8,30.56,SE,143,0.0,0.0,88,0.00,,,0.00,WUHU216DAVISWMX,2013-05-03 08:14:00,
2013-05-03 04:19:00,41.1,37.8,30.56,SE,143,0.0,0.0,88,0.00,,,0.00,WUHU216DAVISWMX,2013-05-03 08:19:00,
2013-05-03 04:24:00,41.0,37.7,30.56,SE,143,0.0,0.0,88,0.00,,,0.00,WUHU216DAVISWMX,2013-05-03 08:24:00,
2013-05-03 04:29:00,40.9,37.9,30.56,SE,143,0.0,0.0,89,0.00,,,0.00,WUHU216DAVISWMX,2013-05-03 08:29:00,
2013-05-03 04:34:00,40.8,37.8,30.57,SE,143,0.0,0.0,89,0.00,,,0.00,WUHU216DAVISWMX,2013-05-03 08:34:00,
2013-05-03 04:39:00,40.7,37.7,30.57,SE,143,0.0,0.0,89,0.00,,,0.00,WUHU216DAVISWMX,2013-05-03 08:39:00,
2013-05-03 04:44:00,40.7,37.7,30.57,SE,143,0.0,0.0,89,0.00,,,0.00,WUHU216DAVISWMX,2013-05-03 08:44:00,
2013-05-03 04:49:00,40.5,37.5,30.57,SE,143,0.0,0.0,89,0.00,,,0.00,WUHU216DAVISWMX,2013-05-03 08:49:00,
2013-05-03 04:54:00,40.5,37.5,30.57,SE,143,0.0,0.0,89,0.00,,,0.00,WUHU216DAVISWMX,2013-05-03 08:54:00,
2013-05-03 04:59:00,40.4,37.4,30.57,SE,143,0.0,0.0,89,0.00,,,0.00,WUHU216DAVISWMX,2013-05-03 08:59:00,
2013-05-03 05:04:00,40.3,37.3,30.57,SE,143,0.0,0.0,89,0.00,,,0.00,WUHU216DAVISWMX,2013-05-03 09:04:00,
2013-05-03 05:09:00,40.3,37.3,30.57,SE,143,0.0,0.0,89,0.00,,,0.00,WUHU216DAVISWMX,2013-05-03 09:09:00,
2013-05-03 05:14:00,40.3,37.3,30.58,SE,143,0.0,0.0,89,0.00,,,0.00,WUHU216DAVISWMX,2013-05-03 09:14:00,
2013-05-03 05:19:00,40.1,37.1,30.58,SE,143,0.0,0.0,89,0.00,,,0.00,WUHU216DAVISWMX,2013-05-03 09:19:00,
2013-05-03 05:24:00,40.1,37.1,30.58,SE,143,0.0,0.0,89,0.00,,,0.00,WUHU216DAVISWMX,2013-05-03 09:24:00,
2013-05-03 05:29:00,40.1,37.1,30.58,SE,143,0.0,0.0,89,0.00,,,0.00,WUHU216DAVISWMX,2013-05-03 09:29:00,
2013-05-03 05:34:00,39.9,36.9,30.59,SE,143,0.0,0.0,89,0.00,,,0.00,WUHU216DAVISWMX,2013-05-03 09:34:00,
2013-05-03 05:39:00,39.8,36.8,30.59,SE,143,0.0,0.0,89,0.00,,,0.00,WUHU216DAVISWMX,2013-05-03 09:39:00,
2013-05-03 05:44:00,39.8,36.8,30.59,SE,143,0.0,0.0,89,0.00,,,0.00,WUHU216DAVISWMX,2013-05-03 09:44:00,
2013-05-03 05:49:00,39.8,37.1,30.59,SE,143,0.0,0.0,90,0.00,,,0.00,WUHU216DAVISWMX,2013-05-03 09:49:00,
2013-05-03 05:54:00,39.8,37.1,30.59,SE,143,0.0,0.0,90,0.00,,,0.00,WUHU216DAVISWMX,2013-05-03 09:54:00,
2013-05-03 05:59:00,39.9,37.2,30.59,SE,143,0.0,0.0,90,0.00,,,0.00,WUHU216DAVISWMX,2013-05-03 09:59:00,
2013-05-03 06:04:00,40.0,37.3,30.59,SE,143,0.0,0.0,90,0.00,,,0.00,WUHU216DAVISWMX,2013-05-03 10:04:00,
2013-05-03 06:09:00,40.0,37.5,30.59,SE,143,0.0,0.0,91,0.00,,,0.00,WUHU216DAVISWMX,2013-05-03 10:09:00,
2013-05-03 06:14:00,40.2,37.7,30.59,SE,143,0.0,0.0,91,0.00,,,0.00,WUHU216DAVISWMX,2013-05-03 10:14:00,
2013-05-03 06:19:00,40.2,37.7,30.59,SE,143,0.0,0.0,91,0.00,,,0.00,WUHU216DAVISWMX,2013-05-03 10:19:00,
2013-05-03 06:24:00,40.4,37.9,30.60,SE,143,0.0,0.0,91,0.00,,,0.00,WUHU216DAVISWMX,2013-05-03 10:24:00,
2013-05-03 06:29:00,40.5,38.0,30.60,SE,143,0.0,0.0,91,0.00,,,0.00,WUHU216DAVISWMX,2013-05-03 10:29:00,
2013-05-03 06:34:00,40.7,38.2,30.60,SE,143,0.0,0.0,91,0.00,,,0.00,WUHU216DAVISWMX,2013-05-03 10:34:00,
2013-05-03 06:39:00,41.0,38.5,30.60,SE,143,0.0,0.0,91,0.00,,,0.00,WUHU216DAVISWMX,2013-05-03 10:39:00,
2013-05-03 06:44:00,41.1,38.6,30.60,SE,143,0.0,0.0,91,0.00,,,0.00,WUHU216DAVISWMX,2013-05-03 10:44:00,
2013-05-03 06:49:00,41.4,38.9,30.60,SE,143,0.0,0.0,91,0.00,,,0.00,WUHU216DAVISWMX,2013-05-03 10:49:00,
2013-05-03 06:54:00,41.6,39.1,30.60,SE,143,0.0,0.0,91,0.00,,,0.00,WUHU216DAVISWMX,2013-05-03 10:54:00,
2013-05-03 06:59:00,42.0,39.5,30.60,NW,309,0.0,2.0,91,0.00,,,0.00,WUHU216DAVISWMX,2013-05-03 10:59:00,
2013-05-03 07:04:00,42.5,40.0,30.60,NW,309,0.0,2.0,91,0.00,,,0.00,WUHU216DAVISWMX,2013-05-03 11:04:00,
2013-05-03 07:10:00,42.9,40.4,30.60,NW,309,0.0,2.0,91,0.00,,,0.00,WUHU216DAVISWMX,2013-05-03 11:10:00,
2013-05-03 07:15:00,43.4,40.6,30.61,NW,309,1.0,2.0,90,0.00,,,0.00,WUHU216DAVISWMX,2013-05-03 11:15:00,
2013-05-03 07:20:00,43.7,40.9,30.61,NW,309,0.0,1.0,90,0.00,,,0.00,WUHU216DAVISWMX,2013-05-03 11:20:00,
2013-05-03 07:25:00,44.2,41.4,30.61,NW,309,0.0,1.0,90,0.00,,,0.00,WUHU216DAVISWMX,2013-05-03 11:25:00,
2013-05-03 07:30:00,44.6,41.5,30.61,NW,309,1.0,1.0,89,0.00,,,0.00,WUHU216DAVISWMX,2013-05-03 11:30:00,
2013-05-03 07:35:00,45.0,41.9,30.61,NW,309,1.0,2.0,89,0.00,,,0.00,WUHU216DAVISWMX,2013-05-03 11:35:00,
2013-05-03 07:40:00,45.3,41.9,30.61,NE,35,0.0,2.0,88,0.00,,,0.00,WUHU216DAVISWMX,2013-05-03 11:40:00,
2013-05-03 07:45:00,45.6,41.9,30.61,NNE,26,0.0,2.0,87,0.00,,,0.00,WUHU216DAVISWMX,2013-05-03 11:45:00,
2013-05-03 07:50:00,45.9,42.2,30.61,ENE,66,5.0,5.0,87,0.00,,,0.00,WUHU216DAVISWMX,2013-05-03 11:50:00,
2013-05-03 07:55:00,46.1,42.4,30.61,North,354,0.0,5.0,87,0.00,,,0.00,WUHU216DAVISWMX,2013-05-03 11:55:00,
2013-05-03 08:00:00,46.3,42.3,30.61,North,0,0.0,4.0,86,0.00,,,0.00,WUHU216DAVISWMX,2013-05-03 12:00:00,
2013-05-03 08:05:00,46.9,42.9,30.61,North,0,2.0,2.0,86,0.00,,,0.00,WUHU216DAVISWMX,2013-05-03 12:05:00,
2013-05-03 08:10:00,47.2,42.9,30.61,NE,50,0.0,3.0,85,0.00,,,0.00,WUHU216DAVISWMX,2013-05-03 12:10:00,
2013-05-03 08:15:00,47.3,42.7,30.61,NE,38,0.0,4.0,84,0.00,,,0.00,WUHU216DAVISWMX,2013-05-03 12:15:00,
2013-05-03 08:20:00,47.7,42.8,30.61,NNE,27,1.0,4.0,83,0.00,,,0.00,WUHU216DAVISWMX,2013-05-03 12:20:00,
2013-05-03 08:25:00,47.6,42.7,30.61,NNE,32,0.0,2.0,83,0.00,,,0.00,WUHU216DAVISWMX,2013-05-03 12:25:00,
2013-05-03 08:30:00,47.7,42.8,30.61,NE,37,0.0,4.0,83,0.00,,,0.00,WUHU216DAVISWMX,2013-05-03 12:30:00,
2013-05-03 08:35:00,48.2,43.3,30.61,ENE,68,0.0,4.0,83,0.00,,,0.00,WUHU216DAVISWMX,2013-05-03 12:35:00,
2013-05-03 08:40:00,49.2,43.6,30.62,West,281,0.0,3.0,81,0.00,,,0.00,WUHU216DAVISWMX,2013-05-03 12:40:00,
2013-05-03 08:45:00,49.8,43.9,30.62,NE,52,0.0,3.0,80,0.00,,,0.00,WUHU216DAVISWMX,2013-05-03 12:45:00,
2013-05-03 08:50:00,50.0,43.8,30.61,East,96,0.0,2.0,79,0.00,,,0.00,WUHU216DAVISWMX,2013-05-03 12:50:00,
2013-05-03 08:55:00,51.0,44.4,30.61,SE,125,0.0,4.0,78,0.00,,,0.00,WUHU216DAVISWMX,2013-05-03 12:55:00,
2013-05-03 09:00:00,51.8,44.9,30.61,ENE,64,2.0,4.0,77,0.00,,,0.00,WUHU216DAVISWMX,2013-05-03 13:00:00,
2013-05-03 09:05:00,52.5,44.5,30.61,NE,51,1.0,4.0,74,0.00,,,0.00,WUHU216DAVISWMX,2013-05-03 13:05:00,
2013-05-03 09:10:00,53.5,45.5,30.61,NE,46,0.0,4.0,74,0.00,,,0.00,WUHU216DAVISWMX,2013-05-03 13:10:00,
2013-05-03 09:15:00,53.9,44.8,30.60,North,0,3.0,3.0,71,0.00,,,0.00,WUHU216DAVISWMX,2013-05-03 13:15:00,
2013-05-03 09:20:00,53.5,44.4,30.60,SE,125,1.0,3.0,71,0.00,,,0.00,WUHU216DAVISWMX,2013-05-03 13:20:00,
2013-05-03 09:25:00,53.2,44.1,30.60,ENE,62,0.0,3.0,71,0.00,,,0.00,WUHU216DAVISWMX,2013-05-03 13:25:00,
2013-05-03 09:30:00,54.3,45.2,30.60,ENE,62,1.0,3.0,71,0.00,,,0.00,WUHU216DAVISWMX,2013-05-03 13:30:00,
2013-05-03 09:35:00,55.0,45.5,30.60,ENE,72,2.0,3.0,70,0.00,,,0.00,WUHU216DAVISWMX,2013-05-03 13:35:00,
2013-05-03 09:40:00,55.2,45.3,30.60,ENE,59,2.0,3.0,69,0.00,,,0.00,WUHU216DAVISWMX,2013-05-03 13:40:00,
2013-05-03 09:45:00,55.5,44.8,30.60,ENE,70,2.0,6.0,67,0.00,,,0.00,WUHU216DAVISWMX,2013-05-03 13:45:00,
2013-05-03 09:50:00,55.3,45.0,30.59,NE,56,1.0,6.0,68,0.00,,,0.00,WUHU216DAVISWMX,2013-05-03 13:50:00,
2013-05-03 09:55:00,55.9,44.4,30.60,NE,34,3.0,4.0,65,0.00,,,0.00,WUHU216DAVISWMX,2013-05-03 13:55:00,
2013-05-03 10:00:00,56.3,45.2,30.59,SSW,201,0.0,4.0,66,0.00,,,0.00,WUHU216DAVISWMX,2013-05-03 14:00:00,
2013-05-03 10:05:00,56.7,44.8,30.59,North,10,3.0,6.0,64,0.00,,,0.00,WUHU216DAVISWMX,2013-05-03 14:05:00,
2013-05-03 10:10:00,57.5,45.6,30.59,SE,128,0.0,6.0,64,0.00,,,0.00,WUHU216DAVISWMX,2013-05-03 14:10:00,
2013-05-03 10:15:00,58.5,45.7,30.59,NE,52,1.0,4.0,62,0.00,,,0.00,WUHU216DAVISWMX,2013-05-03 14:15:00,
2013-05-03 10:20:00,58.8,45.9,30.59,NE,54,2.0,6.0,62,0.00,,,0.00,WUHU216DAVISWMX,2013-05-03 14:20:00,
2013-05-03 10:25:00,59.0,46.1,30.59,ENE,70,2.0,6.0,62,0.00,,,0.00,WUHU216DAVISWMX,2013-05-03 14:25:00,
2013-05-03 10:30:00,59.3,45.5,30.59,ENE,77,2.0,5.0,60,0.00,,,0.00,WUHU216DAVISWMX,2013-05-03 14:30:00,
2013-05-03 10:35:00,59.3,46.0,30.58,ESE,119,0.0,8.0,61,0.00,,,0.00,WUHU216DAVISWMX,2013-05-03 14:35:00,
2013-05-03 10:40:00,59.6,44.9,30.58,North,10,3.0,8.0,58,0.00,,,0.00,WUHU216DAVISWMX,2013-05-03 14:40:00,
2013-05-03 10:45:00,59.5,45.3,30.58,ESE,115,2.0,7.0,59,0.00,,,0.00,WUHU216DAVISWMX,2013-05-03 14:45:00,
2013-05-03 10:50:00,59.6,45.4,30.58,ENE,72,4.0,7.0,59,0.00,,,0.00,WUHU216DAVISWMX,2013-05-03 14:50:00,
2013-05-03 10:55:00,59.5,45.7,30.58,ENE,60,1.0,5.0,60,0.00,,,0.00,WUHU216DAVISWMX,2013-05-03 14:55:00,
2013-05-03 11:00:00,59.9,46.6,30.58,NE,42,0.0,4.0,61,0.00,,,0.00,WUHU216DAVISWMX,2013-05-03 15:00:00,
2013-05-03 11:05:00,60.2,46.4,30.58,ESE,116,2.0,5.0,60,0.00,,,0.00,WUHU216DAVISWMX,2013-05-03 15:05:00,
2013-05-03 11:10:00,60.3,45.6,30.58,ENE,65,2.0,5.0,58,0.00,,,0.00,WUHU216DAVISWMX,2013-05-03 15:10:00,
2013-05-03 11:15:00,60.3,45.6,30.57,NE,37,1.0,4.0,58,0.00,,,0.00,WUHU216DAVISWMX,2013-05-03 15:15:00,
2013-05-03 11:20:00,60.3,45.6,30.57,NNE,32,2.0,3.0,58,0.00,,,0.00,WUHU216DAVISWMX,2013-05-03 15:20:00,
2013-05-03 11:25:00,60.7,46.4,30.57,NW,322,0.0,5.0,59,0.00,,,0.00,WUHU216DAVISWMX,2013-05-03 15:25:00,
2013-05-03 11:30:00,61.1,46.8,30.57,ENE,75,1.0,5.0,59,0.00,,,0.00,WUHU216DAVISWMX,2013-05-03 15:30:00,
2013-05-03 11:35:00,61.4,46.6,30.56,SE,145,2.0,5.0,58,0.00,,,0.00,WUHU216DAVISWMX,2013-05-03 15:35:00,
2013-05-03 11:40:00,61.3,45.6,30.56,North,0,0.0,9.0,56,0.00,,,0.00,WUHU216DAVISWMX,2013-05-03 15:40:00,
2013-05-03 11:45:00,61.0,46.2,30.56,SE,136,1.0,9.0,58,0.00,,,0.00,WUHU216DAVISWMX,2013-05-03 15:45:00,
2013-05-03 11:50:00,61.6,46.8,30.55,SE,137,2.0,5.0,58,0.00,,,0.00,WUHU216DAVISWMX,2013-05-03 15:50:00,
2013-05-03 11:55:00,61.7,46.9,30.55,SE,144,1.0,5.0,58,0.00,,,0.00,WUHU216DAVISWMX,2013-05-03 15:55:00,
2013-05-03 12:00:00,62.1,47.3,30.55,SSW,210,2.0,4.0,58,0.00,,,0.00,WUHU216DAVISWMX,2013-05-03 16:00:00,
2013-05-03 12:05:00,62.2,46.4,30.55,ESE,121,4.0,8.0,56,0.00,,,0.00,WUHU216DAVISWMX,2013-05-03 16:05:00,
2013-05-03 12:10:00,62.3,47.0,30.54,NNW,330,3.0,8.0,57,0.00,,,0.00,WUHU216DAVISWMX,2013-05-03 16:10:00,
2013-05-03 12:15:00,62.2,46.4,30.54,NNE,23,2.0,4.0,56,0.00,,,0.00,WUHU216DAVISWMX,2013-05-03 16:15:00,
2013-05-03 12:20:00,62.0,46.7,30.54,NE,37,0.0,4.0,57,0.00,,,0.00,WUHU216DAVISWMX,2013-05-03 16:20:00,
2013-05-03 12:25:00,62.2,46.9,30.54,NE,37,0.0,3.0,57,0.00,,,0.00,WUHU216DAVISWMX,2013-05-03 16:25:00,
2013-05-03 12:30:00,62.5,47.6,30.53,SE,145,1.0,5.0,58,0.00,,,0.00,WUHU216DAVISWMX,2013-05-03 16:30:00,
2013-05-03 12:35:00,62.5,47.2,30.53,SE,134,2.0,5.0,57,0.00,,,0.00,WUHU216DAVISWMX,2013-05-03 16:35:00,
2013-05-03 12:40:00,62.6,46.8,30.53,East,99,2.0,3.0,56,0.00,,,0.00,WUHU216DAVISWMX,2013-05-03 16:40:00,
2013-05-03 12:45:00,62.7,47.4,30.53,ENE,69,3.0,9.0,57,0.00,,,0.00,WUHU216DAVISWMX,2013-05-03 16:45:00,
2013-05-03 12:50:00,62.9,47.5,30.53,NE,40,2.0,9.0,57,0.00,,,0.00,WUHU216DAVISWMX,2013-05-03 16:50:00,
2013-05-03 12:55:00,63.1,49.1,30.52,SSW,203,2.0,6.0,60,0.00,,,0.00,WUHU216DAVISWMX,2013-05-03 16:55:00,
2013-05-03 13:00:00,63.6,48.7,30.52,ENE,65,2.0,6.0,58,0.00,,,0.00,WUHU216DAVISWMX,2013-05-03 17:00:00,
2013-05-03 13:05:00,63.9,48.5,30.53,SSE,150,3.0,5.0,57,0.00,,,0.00,WUHU216DAVISWMX,2013-05-03 17:05:00,
2013-05-03 13:10:00,63.9,48.5,30.52,SSE,162,1.0,5.0,57,0.00,,,0.00,WUHU216DAVISWMX,2013-05-03 17:10:00,
2013-05-03 13:15:00,64.1,48.2,30.52,NE,49,4.0,5.0,56,0.00,,,0.00,WUHU216DAVISWMX,2013-05-03 17:15:00,
2013-05-03 13:20:00,63.7,48.3,30.52,SE,139,1.0,5.0,57,0.00,,,0.00,WUHU216DAVISWMX,2013-05-03 17:20:00,
2013-05-03 13:25:00,63.9,49.0,30.52,SSE,148,4.0,5.0,58,0.00,,,0.00,WUHU216DAVISWMX,2013-05-03 17:25:00,
2013-05-03 13:30:00,64.2,49.2,30.52,ENE,60,3.0,6.0,58,0.00,,,0.00,WUHU216DAVISWMX,2013-05-03 17:30:00,
2013-05-03 13:35:00,64.0,49.5,30.52,ENE,73,1.0,6.0,59,0.00,,,0.00,WUHU216DAVISWMX,2013-05-03 17:35:00,
2013-05-03 13:40:00,63.9,49.0,30.52,SE,131,5.0,6.0,58,0.00,,,0.00,WUHU216DAVISWMX,2013-05-03 17:40:00,
2013-05-03 13:45:00,64.3,49.8,30.52,NE,41,2.0,8.0,59,0.00,,,0.00,WUHU216DAVISWMX,2013-05-03 17:45:00,
2013-05-03 13:50:00,64.2,49.2,30.51,NE,55,1.0,8.0,58,0.00,,,0.00,WUHU216DAVISWMX,2013-05-03 17:50:00,
2013-05-03 13:55:00,64.1,49.2,30.52,ESE,115,2.0,8.0,58,0.00,,,0.00,WUHU216DAVISWMX,2013-05-03 17:55:00,
2013-05-03 14:00:00,64.2,49.2,30.52,SSE,154,0.0,8.0,58,0.00,,,0.00,WUHU216DAVISWMX,2013-05-03 18:00:00,
2013-05-03 14:05:00,63.9,49.0,30.52,NE,49,5.0,5.0,58,0.00,,,0.00,WUHU216DAVISWMX,2013-05-03 18:05:00,
2013-05-03 14:10:00,63.9,49.9,30.52,East,88,1.0,5.0,60,0.00,,,0.00,WUHU216DAVISWMX,2013-05-03 18:10:00,
2013-05-03 14:15:00,64.2,49.7,30.52,WSW,250,2.0,5.0,59,0.00,,,0.00,WUHU216DAVISWMX,2013-05-03 18:15:00,
2013-05-03 14:20:00,64.4,49.4,30.51,NE,54,0.0,6.0,58,0.00,,,0.00,WUHU216DAVISWMX,2013-05-03 18:20:00,
2013-05-03 14:25:00,64.6,49.6,30.51,ESE,121,3.0,6.0,58,0.00,,,0.00,WUHU216DAVISWMX,2013-05-03 18:25:00,
2013-05-03 14:30:00,64.6,49.1,30.51,SE,137,2.0,6.0,57,0.00,,,0.00,WUHU216DAVISWMX,2013-05-03 18:30:00,
2013-05-03 14:35:00,64.6,49.1,30.51,SE,141,6.0,7.0,57,0.00,,,0.00,WUHU216DAVISWMX,2013-05-03 18:35:00,
2013-05-03 14:40:00,64.5,49.1,30.51,NE,53,2.0,7.0,57,0.00,,,0.00,WUHU216DAVISWMX,2013-05-03 18:40:00,
2013-05-03 14:45:00,63.9,48.5,30.50,NE,49,2.0,5.0,57,0.00,,,0.00,WUHU216DAVISWMX,2013-05-03 18:45:00,
2013-05-03 14:50:00,63.9,49.0,30.50,SE,146,1.0,4.0,58,0.00,,,0.00,WUHU216DAVISWMX,2013-05-03 18:50:00,
2013-05-03 14:55:00,64.1,49.2,30.50,East,101,1.0,6.0,58,0.00,,,0.00,WUHU216DAVISWMX,2013-05-03 18:55:00,
2013-05-03 15:00:00,64.2,49.2,30.50,ENE,61,3.0,6.0,58,0.00,,,0.00,WUHU216DAVISWMX,2013-05-03 19:00:00,
2013-05-03 15:05:00,64.2,49.7,30.50,South,174,1.0,4.0,59,0.00,,,0.00,WUHU216DAVISWMX,2013-05-03 19:05:00,
2013-05-03 15:10:00,64.3,49.3,30.50,NE,52,1.0,5.0,58,0.00,,,0.00,WUHU216DAVISWMX,2013-05-03 19:10:00,
2013-05-03 15:15:00,64.4,49.0,30.49,North,0,1.0,5.0,57,0.00,,,0.00,WUHU216DAVISWMX,2013-05-03 19:15:00,
2013-05-03 15:20:00,64.1,49.6,30.49,NNE,30,1.0,6.0,59,0.00,,,0.00,WUHU216DAVISWMX,2013-05-03 19:20:00,
2013-05-03 15:25:00,63.5,49.1,30.49,NNE,31,0.0,6.0,59,0.00,,,0.00,WUHU216DAVISWMX,2013-05-03 19:25:00,
2013-05-03 15:30:00,63.7,49.7,30.49,SE,142,2.0,6.0,60,0.00,,,0.00,WUHU216DAVISWMX,2013-05-03 19:30:00,
2013-05-03 15:35:00,63.7,48.8,30.49,ENE,64,1.0,6.0,58,0.00,,,0.00,WUHU216DAVISWMX,2013-05-03 19:35:00,
2013-05-03 15:40:00,63.5,49.1,30.48,ESE,113,1.0,4.0,59,0.00,,,0.00,WUHU216DAVISWMX,2013-05-03 19:40:00,
2013-05-03 15:45:00,63.5,49.1,30.48,SE,131,3.0,6.0,59,0.00,,,0.00,WUHU216DAVISWMX,2013-05-03 19:45:00,
2013-05-03 15:50:00,63.5,49.5,30.48,SE,140,4.0,6.0,60,0.00,,,0.00,WUHU216DAVISWMX,2013-05-03 19:50:00,
2013-05-03 15:56:00,63.3,48.9,30.48,SE,145,0.0,6.0,59,0.00,,,0.00,WUHU216DAVISWMX,2013-05-03 19:56:00,
2013-05-03 16:01:00,63.2,48.8,30.48,NE,36,1.0,6.0,59,0.00,,,0.00,WUHU216DAVISWMX,2013-05-03 20:01:00,
2013-05-03 16:06:00,62.9,48.5,30.48,NE,43,0.0,4.0,59,0.00,,,0.00,WUHU216DAVISWMX,2013-05-03 20:06:00,
2013-05-03 16:11:00,62.9,48.9,30.48,ENE,76,2.0,6.0,60,0.00,,,0.00,WUHU216DAVISWMX,2013-05-03 20:11:00,
2013-05-03 16:16:00,62.7,48.3,30.48,NE,50,1.0,6.0,59,0.00,,,0.00,WUHU216DAVISWMX,2013-05-03 20:16:00,
2013-05-03 16:21:00,62.6,48.7,30.48,East,90,4.0,6.0,60,0.00,,,0.00,WUHU216DAVISWMX,2013-05-03 20:21:00,
2013-05-03 16:26:00,62.5,48.6,30.48,ENE,65,2.0,6.0,60,0.00,,,0.00,WUHU216DAVISWMX,2013-05-03 20:26:00,
2013-05-03 16:31:00,62.5,49.0,30.48,NE,56,1.0,5.0,61,0.00,,,0.00,WUHU216DAVISWMX,2013-05-03 20:31:00,
2013-05-03 16:36:00,62.3,48.4,30.48,SE,125,0.0,7.0,60,0.00,,,0.00,WUHU216DAVISWMX,2013-05-03 20:36:00,
2013-05-03 16:41:00,62.3,48.8,30.48,ENE,67,5.0,7.0,61,0.00,,,0.00,WUHU216DAVISWMX,2013-05-03 20:41:00,
2013-05-03 16:46:00,62.2,48.7,30.48,SE,143,3.0,5.0,61,0.00,,,0.00,WUHU216DAVISWMX,2013-05-03 20:46:00,
2013-05-03 16:51:00,62.0,49.0,30.47,ESE,109,0.0,5.0,62,0.00,,,0.00,WUHU216DAVISWMX,2013-05-03 20:51:00,
2013-05-03 16:56:00,62.0,49.0,30.47,South,181,0.0,4.0,62,0.00,,,0.00,WUHU216DAVISWMX,2013-05-03 20:56:00,
2013-05-03 17:01:00,61.8,48.3,30.48,ESE,106,1.0,8.0,61,0.00,,,0.00,WUHU216DAVISWMX,2013-05-03 21:01:00,
2013-05-03 17:06:00,61.6,48.6,30.47,NE,51,2.0,8.0,62,0.00,,,0.00,WUHU216DAVISWMX,2013-05-03 21:06:00,
2013-05-03 17:11:00,61.5,48.9,30.47,ESE,114,1.0,4.0,63,0.00,,,0.00,WUHU216DAVISWMX,2013-05-03 21:11:00,
2013-05-03 17:16:00,61.5,48.9,30.47,East,93,2.0,4.0,63,0.00,,,0.00,WUHU216DAVISWMX,2013-05-03 21:16:00,
2013-05-03 17:21:00,61.6,49.0,30.47,East,89,3.0,3.0,63,0.00,,,0.00,WUHU216DAVISWMX,2013-05-03 21:21:00,
2013-05-03 17:26:00,61.7,49.1,30.47,ESE,110,1.0,6.0,63,0.00,,,0.00,WUHU216DAVISWMX,2013-05-03 21:26:00,
2013-05-03 17:31:00,61.4,48.8,30.47,SE,135,4.0,6.0,63,0.00,,,0.00,WUHU216DAVISWMX,2013-05-03 21:31:00,
2013-05-03 17:36:00,61.4,48.8,30.47,ENE,64,1.0,4.0,63,0.00,,,0.00,WUHU216DAVISWMX,2013-05-03 21:36:00,
2013-05-03 17:41:00,61.5,48.9,30.48,ENE,68,0.0,5.0,63,0.00,,,0.00,WUHU216DAVISWMX,2013-05-03 21:41:00,
2013-05-03 17:46:00,61.5,49.8,30.48,SE,137,0.0,9.0,65,0.00,,,0.00,WUHU216DAVISWMX,2013-05-03 21:46:00,
2013-05-03 17:51:00,61.7,49.1,30.48,ENE,75,1.0,9.0,63,0.00,,,0.00,WUHU216DAVISWMX,2013-05-03 21:51:00,
2013-05-03 17:56:00,61.4,48.8,30.47,NE,44,0.0,3.0,63,0.00,,,0.00,WUHU216DAVISWMX,2013-05-03 21:56:00,
2013-05-03 18:01:00,61.5,49.4,30.47,SE,145,2.0,5.0,64,0.00,,,0.00,WUHU216DAVISWMX,2013-05-03 22:01:00,
2013-05-03 18:06:00,61.4,49.3,30.47,NE,41,0.0,5.0,64,0.00,,,0.00,WUHU216DAVISWMX,2013-05-03 22:06:00,
2013-05-03 18:11:00,61.1,49.0,30.47,NE,36,1.0,2.0,64,0.00,,,0.00,WUHU216DAVISWMX,2013-05-03 22:11:00,
2013-05-03 18:16:00,60.7,48.6,30.47,NE,46,1.0,3.0,64,0.00,,,0.00,WUHU216DAVISWMX,2013-05-03 22:16:00,
2013-05-03 18:21:00,60.5,48.8,30.47,East,98,0.0,3.0,65,0.00,,,0.00,WUHU216DAVISWMX,2013-05-03 22:21:00,
2013-05-03 18:26:00,60.1,48.4,30.48,NE,41,1.0,2.0,65,0.00,,,0.00,WUHU216DAVISWMX,2013-05-03 22:26:00,
2013-05-03 18:31:00,59.9,48.7,30.47,ENE,64,0.0,3.0,66,0.00,,,0.00,WUHU216DAVISWMX,2013-05-03 22:31:00,
2013-05-03 18:36:00,59.8,48.6,30.47,East,93,1.0,3.0,66,0.00,,,0.00,WUHU216DAVISWMX,2013-05-03 22:36:00,
2013-05-03 18:41:00,59.6,48.8,30.47,NNE,33,0.0,2.0,67,0.00,,,0.00,WUHU216DAVISWMX,2013-05-03 22:41:00,
2013-05-03 18:46:00,59.3,48.1,30.48,NNE,33,0.0,2.0,66,0.00,,,0.00,WUHU216DAVISWMX,2013-05-03 22:46:00,
2013-05-03 18:51:00,59.2,48.4,30.48,NE,45,0.0,3.0,67,0.00,,,0.00,WUHU216DAVISWMX,2013-05-03 22:51:00,
2013-05-03 18:56:00,59.0,48.2,30.48,NE,45,0.0,3.0,67,0.00,,,0.00,WUHU216DAVISWMX,2013-05-03 22:56:00,
2013-05-03 19:01:00,58.9,48.1,30.47,ENE,63,2.0,2.0,67,0.00,,,0.00,WUHU216DAVISWMX,2013-05-03 23:01:00,
2013-05-03 19:06:00,58.8,48.4,30.47,ENE,60,0.0,2.0,68,0.00,,,0.00,WUHU216DAVISWMX,2013-05-03 23:06:00,
2013-05-03 19:11:00,58.6,48.2,30.48,ENE,60,0.0,2.0,68,0.00,,,0.00,WUHU216DAVISWMX,2013-05-03 23:11:00,
2013-05-03 19:16:00,58.5,48.1,30.47,ESE,102,0.0,1.0,68,0.00,,,0.00,WUHU216DAVISWMX,2013-05-03 23:16:00,
2013-05-03 19:21:00,58.3,48.3,30.48,ESE,103,0.0,1.0,69,0.00,,,0.00,WUHU216DAVISWMX,2013-05-03 23:21:00,
2013-05-03 19:26:00,58.0,48.4,30.48,ESE,103,0.0,1.0,70,0.00,,,0.00,WUHU216DAVISWMX,2013-05-03 23:26:00,
2013-05-03 19:31:00,57.9,47.9,30.47,ESE,102,0.0,1.0,69,0.00,,,0.00,WUHU216DAVISWMX,2013-05-03 23:31:00,
2013-05-03 19:36:00,57.6,48.0,30.47,East,91,0.0,2.0,70,0.00,,,0.00,WUHU216DAVISWMX,2013-05-03 23:36:00,
2013-05-03 19:41:00,57.4,48.2,30.48,East,91,0.0,2.0,71,0.00,,,0.00,WUHU216DAVISWMX,2013-05-03 23:41:00,
2013-05-03 19:46:00,57.2,48.0,30.48,East,91,0.0,0.0,71,0.00,,,0.00,WUHU216DAVISWMX,2013-05-03 23:46:00,
2013-05-03 19:51:00,57.0,47.8,30.48,East,91,0.0,0.0,71,0.00,,,0.00,WUHU216DAVISWMX,2013-05-03 23:51:00,
2013-05-03 19:56:00,56.8,48.0,30.48,East,91,0.0,0.0,72,0.00,,,0.00,WUHU216DAVISWMX,2013-05-03 23:56:00,
2013-05-03 20:01:00,56.6,47.8,30.48,East,91,0.0,0.0,72,0.00,,,0.00,WUHU216DAVISWMX,2013-05-04 00:01:00,
2013-05-03 20:06:00,56.3,47.9,30.48,East,91,0.0,0.0,73,0.00,,,0.00,WUHU216DAVISWMX,2013-05-04 00:06:00,
2013-05-03 20:11:00,56.0,47.9,30.48,East,91,0.0,0.0,74,0.00,,,0.00,WUHU216DAVISWMX,2013-05-04 00:11:00,
2013-05-03 20:16:00,55.8,47.7,30.48,East,91,0.0,0.0,74,0.00,,,0.00,WUHU216DAVISWMX,2013-05-04 00:16:00,
2013-05-03 20:21:00,55.6,47.5,30.48,East,91,0.0,0.0,74,0.00,,,0.00,WUHU216DAVISWMX,2013-05-04 00:21:00,
2013-05-03 20:26:00,55.4,47.7,30.48,East,91,0.0,0.0,75,0.00,,,0.00,WUHU216DAVISWMX,2013-05-04 00:26:00,
2013-05-03 20:31:00,55.1,47.8,30.48,East,91,0.0,0.0,76,0.00,,,0.00,WUHU216DAVISWMX,2013-05-04 00:31:00,
2013-05-03 20:36:00,54.8,47.5,30.48,East,91,0.0,0.0,76,0.00,,,0.00,WUHU216DAVISWMX,2013-05-04 00:36:00,
2013-05-03 20:41:00,54.6,47.6,30.48,East,91,0.0,0.0,77,0.00,,,0.00,WUHU216DAVISWMX,2013-05-04 00:41:00,
2013-05-03 20:46:00,54.3,47.3,30.48,East,91,0.0,0.0,77,0.00,,,0.00,WUHU216DAVISWMX,2013-05-04 00:46:00,
2013-05-03 20:51:00,54.1,47.1,30.48,East,91,0.0,0.0,77,0.00,,,0.00,WUHU216DAVISWMX,2013-05-04 00:51:00,
2013-05-03 20:56:00,53.9,47.3,30.47,East,91,0.0,0.0,78,0.00,,,0.00,WUHU216DAVISWMX,2013-05-04 00:56:00,
2013-05-03 21:01:00,53.6,47.3,30.48,East,91,0.0,0.0,79,0.00,,,0.00,WUHU216DAVISWMX,2013-05-04 01:01:00,
2013-05-03 21:06:00,53.3,47.0,30.48,East,91,0.0,0.0,79,0.00,,,0.00,WUHU216DAVISWMX,2013-05-04 01:06:00,
2013-05-03 21:11:00,53.1,47.1,30.48,East,91,0.0,0.0,80,0.00,,,0.00,WUHU216DAVISWMX,2013-05-04 01:11:00,
2013-05-03 21:16:00,52.9,46.9,30.48,East,91,0.0,0.0,80,0.00,,,0.00,WUHU216DAVISWMX,2013-05-04 01:16:00,
2013-05-03 21:21:00,52.7,47.1,30.48,East,91,0.0,0.0,81,0.00,,,0.00,WUHU216DAVISWMX,2013-05-04 01:21:00,
2013-05-03 21:26:00,52.4,46.8,30.48,East,91,0.0,0.0,81,0.00,,,0.00,WUHU216DAVISWMX,2013-05-04 01:26:00,
2013-05-03 21:31:00,52.2,46.6,30.48,East,91,0.0,0.0,81,0.00,,,0.00,WUHU216DAVISWMX,2013-05-04 01:31:00,
2013-05-03 21:36:00,52.0,46.4,30.48,East,91,0.0,0.0,81,0.00,,,0.00,WUHU216DAVISWMX,2013-05-04 01:36:00,
2013-05-03 21:41:00,51.7,46.1,30.48,East,91,0.0,0.0,81,0.00,,,0.00,WUHU216DAVISWMX,2013-05-04 01:41:00,
2013-05-03 21:46:00,51.5,46.2,30.48,East,91,0.0,0.0,82,0.00,,,0.00,WUHU216DAVISWMX,2013-05-04 01:46:00,
2013-05-03 21:51:00,51.2,45.9,30.48,East,91,0.0,0.0,82,0.00,,,0.00,WUHU216DAVISWMX,2013-05-04 01:51:00,
2013-05-03 21:56:00,51.1,46.1,30.47,East,91,0.0,0.0,83,0.00,,,0.00,WUHU216DAVISWMX,2013-05-04 01:56:00,
2013-05-03 22:01:00,50.8,46.1,30.47,East,91,0.0,0.0,84,0.00,,,0.00,WUHU216DAVISWMX,2013-05-04 02:01:00,
2013-05-03 22:06:00,50.7,45.7,30.47,East,91,0.0,0.0,83,0.00,,,0.00,WUHU216DAVISWMX,2013-05-04 02:06:00,
2013-05-03 22:11:00,50.5,45.8,30.47,East,91,0.0,0.0,84,0.00,,,0.00,WUHU216DAVISWMX,2013-05-04 02:11:00,
2013-05-03 22:16:00,50.3,45.7,30.47,East,91,0.0,0.0,84,0.00,,,0.00,WUHU216DAVISWMX,2013-05-04 02:16:00,
2013-05-03 22:21:00,50.1,45.5,30.47,East,91,0.0,0.0,84,0.00,,,0.00,WUHU216DAVISWMX,2013-05-04 02:21:00,
2013-05-03 22:26:00,49.9,45.3,30.47,East,91,0.0,0.0,84,0.00,,,0.00,WUHU216DAVISWMX,2013-05-04 02:26:00,
2013-05-03 22:31:00,49.6,45.6,30.47,East,91,0.0,0.0,86,0.00,,,0.00,WUHU216DAVISWMX,2013-05-04 02:31:00,
2013-05-03 22:36:00,49.5,45.5,30.47,East,91,0.0,0.0,86,0.00,,,0.00,WUHU216DAVISWMX,2013-05-04 02:36:00,
2013-05-03 22:41:00,49.4,45.4,30.47,East,91,0.0,0.0,86,0.00,,,0.00,WUHU216DAVISWMX,2013-05-04 02:41:00,
2013-05-03 22:46:00,49.2,44.9,30.47,East,91,0.0,0.0,85,0.00,,,0.00,WUHU216DAVISWMX,2013-05-04 02:46:00,
2013-05-03 22:51:00,48.8,45.1,30.47,East,91,0.0,0.0,87,0.00,,,0.00,WUHU216DAVISWMX,2013-05-04 02:51:00,
2013-05-03 22:56:00,48.7,44.7,30.46,East,91,0.0,0.0,86,0.00,,,0.00,WUHU216DAVISWMX,2013-05-04 02:56:00,
2013-05-03 23:01:00,48.6,44.9,30.46,East,91,0.0,0.0,87,0.00,,,0.00,WUHU216DAVISWMX,2013-05-04 03:01:00,
2013-05-03 23:06:00,48.3,44.3,30.46,East,91,0.0,0.0,86,0.00,,,0.00,WUHU216DAVISWMX,2013-05-04 03:06:00,
2013-05-03 23:11:00,48.2,44.5,30.46,East,91,0.0,0.0,87,0.00,,,0.00,WUHU216DAVISWMX,2013-05-04 03:11:00,
2013-05-03 23:16:00,48.0,44.3,30.46,East,91,0.0,0.0,87,0.00,,,0.00,WUHU216DAVISWMX,2013-05-04 03:16:00,
2013-05-03 23:21:00,47.7,44.3,30.46,East,91,0.0,0.0,88,0.00,,,0.00,WUHU216DAVISWMX,2013-05-04 03:21:00,
2013-05-03 23:26:00,47.6,44.2,30.46,East,91,0.0,0.0,88,0.00,,,0.00,WUHU216DAVISWMX,2013-05-04 03:26:00,
2013-05-03 23:31:00,47.4,44.0,30.46,East,91,0.0,0.0,88,0.00,,,0.00,WUHU216DAVISWMX,2013-05-04 03:31:00,
2013-05-03 23:36:00,47.3,43.9,30.46,East,91,0.0,0.0,88,0.00,,,0.00,WUHU216DAVISWMX,2013-05-04 03:36:00,
2013-05-03 23:41:00,47.2,43.8,30.46,East,91,0.0,0.0,88,0.00,,,0.00,WUHU216DAVISWMX,2013-05-04 03:41:00,
2013-05-03 23:46:00,47.0,43.6,30.46,East,91,0.0,0.0,88,0.00,,,0.00,WUHU216DAVISWMX,2013-05-04 03:46:00,
2013-05-03 23:51:00,46.9,43.5,30.46,East,91,0.0,0.0,88,0.00,,,0.00,WUHU216DAVISWMX,2013-05-04 03:51:00,
2013-05-03 23:56:00,46.7,43.3,30.46,East,91,0.0,0.0,88,0.00,,,0.00,WUHU216DAVISWMX,2013-05-04 03:56:00,